Temperature
22 22 22 21 21 20 20 20 19 19 19 19 19 19 19 19 19 19 19 18 18 18 18 18 18 18 18 18 18 18 18 18 18 18 18 18 18 17 17 17 17 17 17
22 22 22 21 21 20 20 20 19 19 19 19 19 19 19 19 19 18 18 18 18 18 18 18 18 18 18 18 18 18 18 18 18 18 18 18 18 17 17 17 17 17 17
22 22 22 21 21 20 20 20 19 19 19 19 19 19 18 18 18 18 18 18 18 18 18 18 18 18 18 18 18 18 18 18 18 18 17 17 17 17 17 17 17 17 17
22 22 22 21 21 20 20 20 19 19 19 19 19 19 18 18 18 18 18 18 18 18 18 18 18 18 18 18 18 18 18 18 17 17 17 17 17 17 17 17 17 17 17
21 21 22 21 21 20 20 20 19 19 19 19 18 18 18 18 18 18 18 18 18 18 18 18 18 18 18 18 18 18 18 18 17 17 17 17 17 17 17 17 17 17 17
21 21 22 21 21 20 20 20 19 19 19 19 18 18 18 18 18 18 18 18 18 18 18 18 18 18 18 18 18 18 18 18 17 17 17 17 17 17 17 17 17 17 17
21 21 22 21 21 20 20 19 19 19 19 18 18 18 18 18 18 18 18 18 18 18 18 18 18 18 18 18 18 18 18 18 18 17 17 18 18 17 17 17 17 17 17
21 21 21 21 21 20 20 19 19 19 19 18 18 18 18 18 18 18 18 18 18 18 18 18 18 18 18 18 18 18 18 18 18 18 18 18 18 17 17 17 17 17 17
21 21 21 21 21 20 20 19 19 19 18 18 18 18 18 18 18 18 18 18 18 18 18 18 18 18 18 18 18 18 18 18 18 18 18 18 18 17 17 17 17 17 17
21 20 21 20 20 20 20 19 19 19 18 18 18 18 18 18 18 18 18 18 18 18 18 18 18 18 18 18 19 18 18 18 18 18 18 18 18 18 17 17 17 17 17
21 20 20 19 20 19 19 19 19 19 18 18 18 18 18 18 18 18 18 18 18 18 18 18 18 18 18 18 18 19 19 18 18 18 18 18 18 18 17 17 17 17 17
21 20 20 19 19 19 18 19 18 18 19 18 18 18 18 17 18 17 18 18 18 18 18 18 18 18 18 18 18 18 18 18 18 18 18 18 18 18 17 17 17 17 17
21 21 20 19 19 19 18 19 18 18 18 18 18 18 18 18 18 18 18 18 18 18 18 18 18 18 18 18 18 18 18 18 18 18 18 18 18 18 18 17 17 17 17
21 21 20 19 19 19 19 18 18 18 18 18 18 18 18 18 18 18 18 18 18 18 18 18 17 18 18 18 18 18 18 18 18 18 18 18 18 18 18 17 17 17 17
21 21 20 19 19 19 19 19 18 18 18 18 18 18 18 18 18 18 18 18 18 17 18 17 17 17 17 18 18 18 18 18 17 18 18 18 18 18 17 17 17 17 17
21 21 20 19 19 19 19 19 19 18 18 18 18 18 18 18 18 18 18 18 17 17 17 17 17 17 17 17 18 18 18 18 17 17 17 17 17 17 17 17 17 17 17
20 20 20 19 19 19 19 19 18 18 18 18 18 18 18 18 18 18 18 18 17 17 17 17 17 17 17 17 17 17 17 17 17 17 17 17 17 17 17 17 17 17 17
20 20 19 19 18 18 18 18 18 18 18 18 18 18 18 18 17 17 17 17 17 17 17 17 17 17 17 17 17 17 17 17 17 17 17 17 17 17 17 17 17 17 17
20 19 19 19 18 18 18 18 18 18 18 18 18 18 18 17 17 17 17 17 17 17 17 17 17 17 17 17 17 17 17 17 17 17 17 17 17 17 17 17 17 16 17
19 19 19 18 18 18 18 18 18 18 18 18 18 18 18 18 17 17 17 17 17 17 17 17 17 17 17 17 18 17 17 17 17 17 17 17 17 17 17 16 16 16 16
19 19 18 18 18 17 17 17 18 18 18 17 18 18 18 17 17 17 17 17 17 17 17 17 17 17 17 17 17 17 17 17 17 17 17 17 17 17 17 16 16 16 16
19 18 18 18 18 17 17 18 18 18 17 17 17 18 17 17 17 17 17 17 17 17 17 17 17 17 17 17 17 18 18 18 18 18 17 17 17 17 17 17 16 16 16
19 18 18 18 17 17 17 17 17 17 17 17 17 17 17 17 17 17 17 17 17 17 17 17 17 17 17 17 17 18 18 18 18 18 17 17 17 17 17 17 16 16 16
19 18 18 18 17 17 17 17 17 17 17 17 17 17 17 17 17 17 17 17 17 17 17 17 17 17 17 17 17 18 18 18 18 18 17 17 17 17 17 17 17 16 16
19 18 18 17 17 17 17 17 17 17 18 17 17 17 17 17 17 17 17 17 17 17 17 17 17 17 17 17 17 18 18 18 18 18 18 17 17 17 17 17 17 16 16
19 18 18 17 17 17 17 17 17 17 17 17 17 17 17 17 17 17 17 17 17 17 17 17 17 17 17 17 17 17 17 18 18 18 18 18 18 18 17 17 17 17 16
Wind_Speed
19 19 20 18 16 16 16 16 16 15 15 15 14 14 14 14 14 15 15 15 15 14 14 14 14 15 15 16 16 16 17 17 18 18 18 18 17 16 15 17 19 18 18
22 21 21 19 17 17 17 17 16 16 15 15 14 14 13 14 14 14 14 15 15 15 15 15 15 15 15 15 14 15 15 15 15 17 18 18 16 15 16 17 19 16 17
23 21 20 19 18 17 17 17 17 16 15 15 14 14 13 13 13 14 14 15 15 15 16 16 16 15 15 14 14 13 12 12 12 14 15 16 16 17 18 19 19 17 16
22 20 20 20 19 18 17 17 17 16 15 15 14 14 13 13 14 14 14 15 15 16 16 16 15 15 14 13 12 11 9 9 8 8 9 14 15 16 17 17 17 16 15
20 20 21 21 19 18 18 17 17 16 15 15 14 14 13 13 14 14 14 15 15 16 15 15 15 14 13 12 10 8 6 5 4 7 15 17 15 15 16 16 15 15 14
21 21 22 21 20 19 18 17 17 16 15 15 14 14 14 14 14 14 14 15 15 15 15 15 14 13 12 10 8 5 3 0 1 10 16 17 14 14 15 15 14 14 14
20 20 21 21 20 19 18 17 16 16 15 15 14 14 15 14 14 14 15 15 15 15 14 14 13 12 10 8 5 3 1 4 1 13 16 16 15 15 14 14 13 13 13
21 20 20 21 20 19 18 17 16 16 16 15 15 14 14 14 14 14 14 14 14 13 13 12 11 10 9 6 3 1 4 7 7 16 17 16 15 15 14 13 13 13 12
20 20 17 19 18 18 18 17 17 16 16 15 15 14 14 14 14 14 14 14 13 12 11 11 9 8 7 5 2 1 4 7 4 14 16 14 15 14 13 12 12 12 11
19 19 17 17 17 17 16 17 17 16 16 15 15 14 14 14 14 14 14 13 12 11 10 9 8 8 6 5 3 2 5 7 4 15 15 15 15 14 12 12 12 11 11
18 17 17 17 16 16 16 17 16 16 16 15 14 15 14 13 13 12 14 12 11 10 9 8 7 7 6 5 5 4 6 2 10 13 14 16 15 13 12 11 11 10 10
17 17 16 17 15 14 15 15 14 14 14 13 12 13 11 10 11 12 14 12 11 9 8 7 7 7 7 6 7 7 6 4 9 13 14 17 14 12 11 10 10 10 9
15 15 15 16 13 12 10 12 10 10 12 12 13 12 9 9 10 12 10 9 9 9 7 7 7 6 5 3 3 3 1 5 9 13 14 16 14 12 11 10 9 9 9
14 14 14 15 12 9 10 9 8 8 8 8 11 11 8 4 5 7 6 8 7 6 4 4 3 1 3 3 1 1 3 6 10 13 14 15 13 11 10 9 9 9 9
12 12 14 14 11 9 8 7 8 7 8 9 10 9 9 5 4 5 3 4 5 5 4 2 1 2 1 1 1 3 4 5 9 12 12 14 13 11 10 9 9 8 9
12 11 12 14 12 9 7 4 5 6 6 9 9 9 9 7 5 5 4 2 3 4 4 2 3 2 1 0 1 3 2 4 7 11 13 12 12 11 10 9 9 8 8
12 11 12 12 12 11 9 7 6 6 8 6 8 11 9 9 8 6 4 3 3 5 5 3 3 2 3 2 2 2 2 2 5 7 11 12 12 11 11 10 9 9 9
12 11 12 13 13 11 8 6 4 5 6 6 9 10 8 9 9 5 4 3 5 5 3 2 2 2 1 1 2 1 2 3 4 5 7 10 12 12 12 12 11 10 9
11 11 11 11 13 12 9 6 4 3 4 5 8 9 9 9 9 5 3 4 5 3 2 3 3 1 1 1 2 2 2 3 3 5 5 7 9 11 13 14 13 12 11
11 11 11 11 12 11 9 7 4 5 5 5 6 7 10 9 8 5 4 4 4 2 2 2 3 1 1 1 2 3 3 4 3 3 4 6 8 10 12 13 13 12 12
11 11 12 12 11 10 9 9 7 7 6 5 6 9 10 9 8 4 4 4 2 2 3 4 3 2 3 2 1 1 3 4 4 4 3 3 5 7 9 12 13 11 11
12 12 12 11 12 12 10 8 7 8 6 6 5 7 10 9 8 6 5 5 3 3 3 2 2 1 2 2 1 1 2 2 2 5 4 4 3 5 7 10 10 10 11
12 12 12 11 11 12 11 8 7 6 6 6 7 7 7 9 8 5 6 4 4 4 4 3 3 3 1 1 2 1 0 1 2 2 5 4 4 3 3 6 9 10 10
11 11 10 11 11 12 12 11 11 10 8 8 7 6 7 7 7 7 6 4 3 3 5 5 5 3 2 2 2 2 1 1 0 2 2 4 5 4 2 3 5 8 9
12 11 10 11 11 11 12 12 12 10 8 7 7 8 7 6 6 7 6 5 4 3 4 3 3 2 1 2 2 2 2 2 2 2 2 3 3 4 5 3 3 6 9
11 11 11 12 11 12 12 12 12 11 10 10 10 9 8 6 6 6 6 5 4 3 4 3 2 3 2 2 2 2 1 2 2 2 2 3 4 4 5 4 4 5 8
Wind_Direction
127 130 130 128 128 128 127 125 124 122 117 113 108 103 100 97 95 94 94 95 95 95 96 95 92 90 87 85 85 86 89 92 94 96 96 94 92 90 93 102 97 91 92
126 130 130 129 129 129 128 127 126 124 121 118 114 110 106 102 100 100 98 98 97 97 96 95 94 93 92 91 91 93 96 100 103 105 104 95 89 89 91 91 93 98 96
125 130 132 131 130 128 128 128 127 125 123 122 119 115 110 107 104 102 101 100 99 98 97 96 95 94 94 94 95 99 104 108 114 120 115 104 94 90 91 94 98 99 98
128 136 134 133 132 131 130 129 129 128 126 125 123 119 116 112 107 105 104 102 101 100 99 98 96 95 95 96 98 104 111 118 128 130 113 105 100 97 97 98 100 99 100
130 130 133 137 134 134 133 132 131 131 130 128 126 124 121 116 110 108 106 104 103 102 101 99 98 97 96 97 101 107 115 125 144 118 97 93 95 103 102 103 104 103 101
130 131 137 139 137 136 135 134 134 133 132 130 128 126 121 117 114 111 107 106 104 103 101 100 99 99 98 99 101 101 98 82 256 109 107 104 103 107 107 106 106 105 103
134 133 140 141 140 139 138 138 137 136 135 132 128 124 121 119 117 114 109 108 106 104 103 101 100 100 100 99 100 89 10 315 157 109 105 104 109 110 109 109 109 108 106
135 135 139 142 142 142 142 141 140 139 137 134 130 127 124 122 119 118 115 113 110 108 106 104 102 103 103 102 99 41 335 321 101 107 107 108 115 112 110 110 112 112 110
135 135 144 146 146 146 146 145 144 141 138 137 134 132 129 128 126 123 120 117 114 113 111 109 108 109 112 116 120 301 308 322 73 114 114 115 119 117 116 116 114 114 114
138 142 149 150 149 151 149 149 148 145 142 140 140 140 137 136 134 132 127 122 121 119 118 118 118 122 129 143 174 257 300 314 116 110 112 121 124 122 122 122 119 117 119
145 148 154 150 154 156 153 152 151 149 147 147 149 150 151 152 145 147 128 131 129 128 129 132 136 143 152 172 201 243 277 276 95 104 112 126 127 126 125 124 123 122 122
151 156 157 154 158 161 155 150 156 157 155 162 158 164 176 162 147 135 136 140 142 144 148 160 166 175 186 180 195 226 252 161 120 112 123 130 129 130 131 130 130 130 129
158 158 157 153 158 160 144 155 162 161 163 171 164 173 174 146 136 134 144 150 160 166 174 170 192 207 184 141 181 216 236 79 99 112 130 133 133 134 136 138 139 139 138
164 159 154 148 157 154 148 159 165 158 166 166 163 175 161 154 145 147 149 162 168 168 165 178 199 129 107 139 152 44 71 90 102 116 134 136 137 140 143 146 147 150 150
163 162 150 150 155 149 147 166 163 155 170 158 160 180 159 157 149 134 128 149 166 156 164 199 128 93 83 169 158 107 70 84 106 118 136 144 145 150 153 155 156 158 162
168 163 152 152 151 148 153 177 153 161 161 154 160 169 166 152 137 127 137 163 161 154 149 159 133 133 163 116 71 97 101 99 106 128 144 152 156 160 164 165 165 166 170
164 157 151 152 152 155 166 183 170 164 159 155 157 161 167 150 141 145 152 175 157 137 137 156 156 164 177 165 125 123 129 115 127 134 147 157 165 172 174 176 178 177 178
161 159 160 166 160 161 167 183 181 163 149 150 152 156 164 148 149 158 159 160 149 150 158 140 197 188 149 143 141 173 136 143 142 161 166 165 170 176 181 186 186 186 187
157 160 164 161 161 165 167 175 185 150 147 153 153 159 162 156 157 166 142 132 162 162 162 182 155 144 148 159 169 174 171 162 152 188 178 176 173 170 174 185 190 191 194
158 164 164 166 166 164 165 172 176 165 159 166 160 156 158 162 162 166 144 150 179 159 143 99 101 111 165 230 226 166 186 165 177 180 190 182 177 177 175 177 184 195 201
161 166 169 174 172 168 171 175 177 175 172 168 163 155 160 163 161 172 138 143 172 146 146 152 149 192 216 204 211 188 197 191 180 176 187 171 177 177 176 168 181 186 190
167 172 177 178 173 172 175 177 178 171 172 169 162 153 160 159 164 172 144 166 167 147 150 158 148 216 230 186 203 205 193 190 208 187 167 182 186 181 180 178 180 183 188
170 177 181 178 174 174 174 175 177 164 167 170 161 161 163 163 170 159 154 165 166 166 163 182 194 207 244 231 213 225 228 182 187 188 189 176 173 188 186 172 180 183 187
172 175 172 173 179 180 179 181 178 176 175 174 167 160 161 165 165 163 162 161 167 170 160 192 191 202 210 247 228 207 217 120 192 167 198 171 176 182 203 212 182 180 185
172 172 171 172 179 183 185 184 182 180 175 166 158 154 160 166 168 168 165 160 172 187 164 172 149 190 226 248 261 221 205 200 236 202 197 180 188 188 189 197 179 186 184
168 170 171 173 176 179 185 187 187 182 176 169 163 163 167 168 176 169 167 167 183 182 159 151 164 196 246 303 316 306 242 223 231 224 206 201 196 194 184 180 178 187 193
Height
1499 1501 1504 1507 1510 1512 1514 1517 1519 1521 1522 1524 1525 1527 1528 1529 1530 1532 1533 1534 1535 1537 1538 1539 1540 1541 1542 1543 1545 1546 1547 1548 1549 1550 1551 1552 1553 1554 1555 1557 1558 1558 1559
1497 1501 1505 1508 1511 1513 1516 1518 1520 1522 1524 1526 1527 1528 1530 1531 1532 1534 1535 1536 1537 1538 1540 1541 1542 1543 1544 1545 1546 1548 1549 1550 1551 1552 1554 1555 1556 1557 1558 1559 1560 1561 1562
1497 1501 1505 1508 1511 1514 1517 1519 1521 1524 1525 1527 1529 1530 1532 1533 1534 1536 1537 1538 1539 1540 1541 1543 1544 1545 1546 1547 1548 1550 1551 1552 1554 1555 1556 1557 1558 1559 1561 1562 1563 1564 1565
1498 1502 1506 1509 1512 1515 1518 1520 1523 1525 1527 1529 1530 1532 1534 1535 1537 1538 1539 1540 1541 1542 1543 1544 1546 1547 1548 1549 1551 1552 1554 1555 1556 1557 1559 1560 1561 1562 1563 1564 1565 1566 1567
1500 1503 1506 1510 1513 1516 1518 1521 1524 1526 1528 1530 1532 1534 1535 1537 1538 1540 1541 1542 1543 1544 1545 1546 1548 1549 1550 1551 1553 1554 1556 1557 1558 1560 1561 1562 1563 1564 1565 1566 1568 1569 1570
1500 1503 1507 1510 1514 1516 1519 1522 1525 1527 1529 1531 1533 1535 1537 1539 1540 1542 1543 1544 1545 1546 1547 1549 1550 1551 1552 1554 1555 1557 1558 1559 1560 1562 1563 1564 1565 1566 1567 1569 1570 1571 1572
1502 1504 1508 1511 1514 1517 1520 1523 1526 1528 1530 1533 1535 1537 1538 1540 1542 1543 1545 1546 1547 1548 1550 1551 1552 1553 1554 1556 1557 1558 1560 1561 1562 1564 1565 1566 1567 1568 1569 1570 1572 1573 1574
1503 1505 1508 1512 1515 1518 1521 1524 1527 1529 1532 1534 1536 1538 1540 1541 1543 1545 1546 1548 1549 1550 1551 1553 1554 1555 1556 1557 1559 1560 1561 1562 1565 1565 1566 1567 1568 1569 1571 1572 1573 1574 1576
1504 1505 1509 1512 1516 1519 1522 1525 1527 1530 1533 1535 1537 1539 1541 1543 1545 1546 1548 1549 1550 1552 1553 1554 1556 1557 1558 1559 1560 1562 1563 1564 1566 1566 1567 1568 1569 1571 1572 1573 1574 1576 1577
1505 1506 1509 1513 1516 1519 1522 1525 1528 1531 1533 1536 1538 1540 1542 1544 1546 1547 1549 1551 1552 1553 1555 1556 1557 1558 1560 1561 1562 1563 1565 1566 1567 1567 1568 1569 1570 1572 1573 1574 1575 1577 1578
1505 1507 1510 1513 1516 1519 1522 1525 1528 1531 1534 1536 1539 1541 1543 1545 1547 1548 1550 1552 1553 1555 1556 1557 1559 1560 1561 1562 1564 1565 1566 1566 1567 1567 1568 1569 1571 1572 1574 1575 1576 1578 1579
1504 1507 1510 1513 1516 1520 1523 1525 1528 1531 1534 1537 1539 1542 1544 1547 1548 1550 1551 1553 1554 1556 1557 1559 1560 1561 1562 1564 1565 1566 1566 1568 1568 1568 1569 1570 1572 1573 1575 1576 1577 1578 1580
1503 1507 1510 1512 1515 1519 1523 1525 1529 1532 1534 1537 1540 1542 1545 1548 1549 1551 1552 1553 1555 1557 1558 1560 1561 1562 1564 1565 1566 1567 1568 1569 1569 1569 1570 1571 1573 1574 1575 1576 1577 1579 1580
1501 1505 1509 1510 1514 1518 1521 1525 1529 1532 1534 1537 1540 1543 1545 1548 1550 1551 1552 1554 1556 1557 1559 1560 1562 1563 1564 1565 1567 1568 1569 1569 1569 1570 1571 1572 1573 1574 1576 1577 1578 1579 1580
1500 1504 1507 1509 1512 1517 1520 1525 1529 1531 1534 1537 1539 1543 1545 1547 1549 1551 1553 1554 1556 1558 1559 1560 1562 1563 1564 1566 1567 1568 1569 1569 1570 1570 1571 1572 1573 1574 1576 1577 1578 1579 1580
1498 1502 1505 1507 1511 1515 1519 1524 1527 1531 1534 1536 1539 1542 1544 1547 1549 1550 1552 1554 1556 1557 1559 1560 1561 1563 1564 1565 1567 1568 1569 1569 1570 1570 1571 1572 1573 1574 1575 1576 1577 1578 1579
1495 1499 1502 1506 1509 1512 1518 1522 1526 1530 1532 1535 1538 1541 1544 1546 1548 1550 1552 1554 1555 1557 1558 1560 1561 1562 1564 1565 1566 1568 1568 1569 1570 1571 1572 1572 1573 1574 1575 1576 1577 1578 1579
1493 1497 1500 1504 1507 1511 1516 1520 1525 1529 1531 1534 1537 1540 1542 1545 1547 1549 1551 1553 1555 1556 1558 1559 1561 1562 1564 1565 1566 1567 1568 1569 1570 1571 1572 1572 1573 1573 1574 1575 1576 1577 1578
1490 1494 1497 1501 1504 1509 1514 1519 1523 1527 1530 1533 1536 1539 1541 1544 1546 1549 1551 1552 1554 1556 1557 1559 1561 1562 1563 1564 1566 1567 1568 1569 1569 1570 1571 1572 1573 1573 1574 1574 1575 1576 1577
1488 1491 1495 1498 1502 1507 1512 1517 1522 1525 1528 1532 1535 1537 1540 1543 1545 1548 1549 1551 1553 1555 1557 1558 1559 1561 1562 1564 1565 1566 1567 1568 1569 1570 1571 1572 1572 1573 1573 1573 1574 1575 1575
1486 1489 1492 1495 1498 1504 1509 1514 1518 1523 1526 1530 1534 1536 1539 1542 1544 1547 1548 1550 1552 1554 1556 1557 1559 1560 1562 1563 1565 1566 1567 1567 1568 1569 1570 1571 1572 1572 1573 1573 1573 1574 1574
1484 1487 1490 1493 1495 1500 1506 1511 1516 1521 1525 1529 1532 1535 1537 1540 1543 1546 1547 1549 1551 1553 1555 1556 1558 1560 1561 1563 1564 1565 1566 1568 1567 1568 1569 1570 1571 1571 1572 1572 1572 1573 1573
1482 1484 1487 1490 1494 1497 1503 1509 1515 1519 1524 1528 1530 1533 1536 1539 1541 1544 1546 1548 1550 1552 1553 1555 1557 1559 1560 1562 1563 1565 1565 1565 1566 1568 1568 1569 1570 1570 1571 1571 1571 1572 1572
1480 1483 1485 1489 1492 1496 1502 1507 1511 1515 1519 1524 1528 1531 1534 1537 1540 1543 1545 1547 1549 1551 1552 1554 1556 1558 1559 1561 1562 1563 1564 1565 1566 1567 1568 1568 1569 1569 1570 1571 1571 1571 1571
1478 1481 1483 1487 1490 1494 1499 1504 1509 1513 1518 1522 1526 1530 1533 1536 1538 1541 1543 1545 1547 1549 1551 1552 1554 1556 1558 1559 1561 1562 1563 1564 1565 1566 1566 1567 1567 1568 1568 1569 1569 1570 1570
1477 1479 1482 1485 1488 1492 1497 1502 1507 1511 1516 1520 1524 1527 1531 1534 1537 1539 1541 1544 1546 1548 1549 1551 1553 1554 1556 1557 1559 1560 1562 1563 1563 1564 1564 1565 1565 1566 1566 1567 1568 1568 1569